Content
SEND FEEDBACK

Daily
Averages
Monthly
Summary
Tonga

FUA'AMOTU, TONGA


Home > Oceania > Tonga
Elevation: 160 feet     Latitude: 21 14S     Longitude: 175 08W

WEATHER
 
SELECT A DAY
Number of Records: 115,598;   Date Range: 9/11/97 - 9/21/14
 
SHARE

PRINT THIS DATA

[ ← Previous Day ]
WEATHER ALMANAC - JANUARY 31, 2013
[ Next Day → ]
[ °C ]   °F
Weather ElementAverageHighLow
Temperature80.7 °F87.8 °F (2:00 pm)73.4 °F (5:00 am)
Dewpoint76.8 °F81 °F (7:00 pm)73 °F (7:00 am)
Humidity88.1 %100 % (5:00 am)72 % (1:00 pm)
Barometer29.76 in29.83 in (10:00 pm)29.71 in (2:00 am)
Wind Speed5.7 mph12.7 mph (2:00 pm)
Weather ElementAverage
Visibility7.1 mi
Wind DirectionSSE (141.2 °)

Weather ElementTotal
Precipitation---
Cooling Degree Days15.6 (Base 65)
Growing Degree Days30.6 (Base 50)
Averaged from 27 records on January 31, 2013
WEATHER CONDITIONS BREAKOUT
WIND DIRECTION BREAKOUT
WEATHER BY HOUR - JANUARY 31, 2013
[ °C ]   °F
Local TimeTemperatureDewpointHumidityBarometerVisibilityWind DirectionWind SpeedGust SpeedPrecipitationEventsConditions
1:00 AM76.0 °F75.0 °F96 %29.74 in12.0 miCalm
1:00 AM77.0 °F75.2 °F94 %29.74 in6.2 miCalmPartly Cloudy
2:00 AM75.2 °F73.4 °F94 %29.71 in6.2 miCalmPartly Cloudy
3:00 AM75.2 °F73.4 °F94 %29.71 in6.2 miCalmPartly Cloudy
4:00 AM75.2 °F73.4 °F94 %29.71 in6.2 miVariable2.3 mphPartly Cloudy
5:00 AM73.4 °F73.4 °F100 %29.71 in6.2 miCalmPartly Cloudy
6:00 AM73.4 °F73.4 °F100 %29.74 in6.2 miCalmPartly Cloudy
7:00 AM74.0 °F73.0 °F97 %29.74 in12.0 miNNE (30°)4.6 mph
7:00 AM73.4 °F73.4 °F100 %29.74 in6.2 miNNE (30°)4.6 mphPartly Cloudy
8:00 AM78.8 °F77.0 °F94 %29.77 in6.2 miNNE (30°)4.6 mphPartly Cloudy
9:00 AM82.4 °F78.8 °F89 %29.77 in6.2 miNNE (30°)10.4 mphPartly Cloudy
10:00 AM86.0 °F77.0 °F74 %29.77 in6.2 miNorth (360°)9.2 mphPartly Cloudy
11:00 AM86.0 °F78.8 °F79 %29.77 in6.2 miNNW (340°)11.5 mphPartly Cloudy
12:00 PM86.0 °F77.0 °F74 %29.77 in6.2 miNorth (350°)11.5 mphScattered Clouds
1:00 PM87.0 °F79.0 °F72 %29.76 in12.0 miNorth9.2 mph
1:00 PM86.0 °F78.8 °F79 %29.74 in6.2 miNorth (360°)11.5 mphScattered Clouds
2:00 PM87.8 °F80.6 °F79 %29.74 in6.2 miNorth (350°)12.7 mphScattered Clouds
3:00 PM87.8 °F78.8 °F75 %29.74 in6.2 miNorth (360°)8.1 mphScattered Clouds
4:00 PM87.8 °F78.8 °F75 %29.74 in6.2 miNNW (340°)11.5 mphScattered Clouds
5:00 PM86.0 °F77.0 °F74 %29.74 in6.2 miNorth (350°)12.7 mphScattered Clouds
6:00 PM84.2 °F80.6 °F89 %29.77 in6.2 miNorth (360°)5.8 mphPartly Cloudy
7:00 PM83.0 °F81.0 °F91 %29.78 in12.0 miNorth5.8 mph
7:00 PM84.2 °F80.6 °F89 %29.77 in6.2 miNorth (360°)5.8 mphPartly Cloudy
8:00 PM80.6 °F78.8 °F94 %29.77 in6.2 miNNE (20°)4.6 mph
9:00 PM78.8 °F77.0 °F94 %29.80 in6.2 miVariable2.3 mph
10:00 PM77.0 °F75.2 °F94 %29.83 in6.2 miVariable2.3 mphPartly Cloudy
11:00 PM77.0 °F75.2 °F94 %29.83 in6.2 miVariable2.3 mphPartly Cloudy
Hourly data recorded from NFTF, located miles away from Fua'amotu, Tonga







STORIES FROM OUR PARTNERS